RYR2YG LEGE-EIDW

Flight info

Callsign RYR2YG
Flight time N/A
Altitude 38000
Route GEANT1B GEANT DCT ROCAN DCT TOU DCT AGN DCT SECHE DCT UVELI DCT CNA DCT MANAK UY110 TIRAV UT183 BAGAD DCT DOLUR DCT UPCAB DCT IJALA DCT EVRIN DCT BUNED BUNED3R
Aircraft B738/M-SDE3FGILRWY/SB1

Departure

Time 2026-04-20 15:04
Airport Girona-Costa Brava Airport (LEGE)

Arrival

Time N/A
Airport Dublin Airport (EIDW)
Time Latitude Longitude Altitude Speed Heading
2026-04-20 14:39 41.89772 2.76450 418 ft 0 kts 107°
2026-04-20 14:54 41.89772 2.76449 413 ft 1 kts 107°
2026-04-20 14:54 41.89777 2.76425 418 ft 4 kts 101°
2026-04-20 14:54 41.89777 2.76391 408 ft 4 kts 68°
2026-04-20 14:54 41.89762 2.76366 418 ft 4 kts 23°
2026-04-20 14:55 41.89754 2.76362 418 ft 1 kts 15°
2026-04-20 14:55 41.89752 2.76361 418 ft 1 kts 15°
2026-04-20 14:58 41.89771 2.76368 419 ft 6 kts 15°
2026-04-20 14:58 41.89825 2.76388 411 ft 10 kts 15°
2026-04-20 14:58 41.89887 2.76345 417 ft 12 kts 289°
2026-04-20 14:59 41.89916 2.76246 426 ft 9 kts 316°
2026-04-20 14:59 41.89982 2.76243 421 ft 11 kts 12°
2026-04-20 14:59 41.90071 2.76277 425 ft 15 kts 16°
2026-04-20 14:59 41.90186 2.76320 427 ft 19 kts 15°
2026-04-20 15:00 41.90307 2.76367 437 ft 19 kts 16°
2026-04-20 15:00 41.90420 2.76410 439 ft 17 kts 15°
2026-04-20 15:00 41.90515 2.76446 436 ft 13 kts 15°
2026-04-20 15:00 41.90612 2.76482 441 ft 16 kts 15°
2026-04-20 15:01 41.90705 2.76517 449 ft 11 kts 15°
2026-04-20 15:01 41.90784 2.76546 454 ft 12 kts 15°
2026-04-20 15:01 41.90869 2.76578 458 ft 13 kts 15°
2026-04-20 15:01 41.90961 2.76614 461 ft 15 kts 16°
2026-04-20 15:02 41.91075 2.76659 462 ft 19 kts 16°
2026-04-20 15:02 41.91204 2.76708 464 ft 21 kts 16°
2026-04-20 15:02 41.91337 2.76758 466 ft 21 kts 15°
2026-04-20 15:02 41.91408 2.76760 468 ft 11 kts 342°
2026-04-20 15:03 41.91481 2.76710 471 ft 13 kts 331°
2026-04-20 15:03 41.91532 2.76629 474 ft 12 kts 264°
2026-04-20 15:03 41.91468 2.76577 472 ft 12 kts 194°
2026-04-20 15:03 41.91331 2.76527 474 ft 41 kts 196°
2026-04-20 15:04 41.90811 2.76325 463 ft 115 kts 195°
2026-04-20 15:04 41.89819 2.75953 470 ft 173 kts 195°
2026-04-20 15:04 41.88677 2.75522 1332 ft 168 kts 195°
2026-04-20 15:04 41.87568 2.75099 2279 ft 169 kts 195°
2026-04-20 15:05 41.86335 2.74632 2553 ft 197 kts 195°
2026-04-20 15:05 41.84967 2.74117 2944 ft 205 kts 197°
2026-04-20 15:05 41.83565 2.73585 3386 ft 216 kts 200°
2026-04-20 15:05 41.82256 2.72529 3609 ft 228 kts 234°
2026-04-20 15:06 41.81635 2.70626 4204 ft 223 kts 267°
2026-04-20 15:06 41.81896 2.68577 4695 ft 232 kts 297°
2026-04-20 15:06 41.83023 2.66912 4900 ft 256 kts 326°
2026-04-20 15:06 41.84603 2.65648 5298 ft 271 kts 330°
2026-04-20 15:07 41.86276 2.64416 5907 ft 279 kts 330°
2026-04-20 15:07 41.87979 2.63170 6766 ft 279 kts 331°
2026-04-20 15:07 41.89684 2.61925 7458 ft 282 kts 330°
2026-04-20 15:07 41.91413 2.60638 8108 ft 286 kts 331°
2026-04-20 15:08 41.93168 2.59355 8806 ft 289 kts 332°
2026-04-20 15:08 41.94945 2.58058 9507 ft 293 kts 331°
2026-04-20 15:08 41.96739 2.56747 10295 ft 294 kts 330°
2026-04-20 15:08 41.98568 2.55392 10556 ft 310 kts 328°
2026-04-20 15:09 42.00517 2.53902 10734 ft 333 kts 329°
2026-04-20 15:09 42.02584 2.52349 11246 ft 345 kts 329°
2026-04-20 15:09 42.04688 2.50777 11936 ft 347 kts 329°
2026-04-20 15:09 42.06808 2.49203 12652 ft 349 kts 328°
2026-04-20 15:10 42.08939 2.47617 13371 ft 351 kts 328°
2026-04-20 15:10 42.11091 2.46008 14076 ft 355 kts 328°
2026-04-20 15:10 42.13264 2.44372 14851 ft 360 kts 327°
2026-04-20 15:10 42.15455 2.42717 15714 ft 360 kts 327°
2026-04-20 15:11 42.17645 2.41046 16483 ft 362 kts 327°
2026-04-20 15:11 42.19860 2.39385 17181 ft 366 kts 327°
2026-04-20 15:11 42.22099 2.37708 17799 ft 370 kts 327°
2026-04-20 15:11 42.24358 2.36012 18414 ft 374 kts 327°
2026-04-20 15:12 42.26638 2.34295 19043 ft 377 kts 327°
2026-04-20 15:12 42.28936 2.32560 19638 ft 380 kts 327°
2026-04-20 15:12 42.31253 2.30807 20200 ft 384 kts 327°
2026-04-20 15:12 42.33594 2.29033 20757 ft 387 kts 327°
2026-04-20 15:13 42.35959 2.27262 21346 ft 390 kts 328°
2026-04-20 15:13 42.38351 2.25459 21950 ft 394 kts 327°
2026-04-20 15:13 42.40732 2.23618 22495 ft 397 kts 327°
2026-04-20 15:13 42.43136 2.21731 23008 ft 399 kts 325°
2026-04-20 15:14 42.45369 2.19506 23516 ft 400 kts 318°
2026-04-20 15:14 42.47518 2.17093 23972 ft 403 kts 317°
2026-04-20 15:14 42.49672 2.14631 24410 ft 407 kts 317°
2026-04-20 15:14 42.51807 2.12193 24916 ft 408 kts 317°
2026-04-20 15:15 42.53981 2.09724 25421 ft 409 kts 317°
2026-04-20 15:15 42.56172 2.07251 25871 ft 410 kts 318°
2026-04-20 15:15 42.58376 2.04767 26274 ft 413 kts 318°
2026-04-20 15:15 42.60593 2.02272 26670 ft 415 kts 318°
2026-04-20 15:16 42.62822 1.99760 27062 ft 417 kts 318°
2026-04-20 15:16 42.65056 1.97241 27443 ft 419 kts 318°
2026-04-20 15:16 42.67376 1.94829 27824 ft 423 kts 324°
2026-04-20 15:16 42.69962 1.92882 28213 ft 427 kts 332°
2026-04-20 15:17 42.72669 1.91197 28586 ft 429 kts 333°
2026-04-20 15:17 42.75403 1.89536 28923 ft 431 kts 333°
2026-04-20 15:17 42.78144 1.87873 29276 ft 433 kts 333°
2026-04-20 15:17 42.80900 1.86190 29568 ft 435 kts 332°
2026-04-20 15:18 42.83661 1.84489 29877 ft 436 kts 332°
2026-04-20 15:18 42.86425 1.82774 30204 ft 437 kts 332°
2026-04-20 15:18 42.89193 1.81049 30559 ft 437 kts 332°
2026-04-20 15:18 42.91952 1.79326 30962 ft 435 kts 332°
2026-04-20 15:19 42.94697 1.77607 31403 ft 432 kts 331°
2026-04-20 15:19 42.97422 1.75898 31795 ft 431 kts 331°
2026-04-20 15:19 43.00145 1.74188 32126 ft 431 kts 331°
2026-04-20 15:19 43.02866 1.72477 32517 ft 429 kts 331°
2026-04-20 15:20 43.05573 1.70776 32903 ft 427 kts 331°
2026-04-20 15:20 43.08272 1.69077 33210 ft 427 kts 331°
2026-04-20 15:20 43.10970 1.67376 33535 ft 426 kts 331°
2026-04-20 15:20 43.13658 1.65680 33867 ft 425 kts 331°
2026-04-20 15:21 43.16339 1.63985 34159 ft 424 kts 331°
2026-04-20 15:21 43.19018 1.62291 34421 ft 424 kts 331°
2026-04-20 15:21 43.21701 1.60593 34678 ft 424 kts 331°
2026-04-20 15:21 43.24377 1.58897 34949 ft 424 kts 330°
2026-04-20 15:22 43.27060 1.57197 35217 ft 424 kts 330°
2026-04-20 15:22 43.29733 1.55501 35489 ft 423 kts 330°
2026-04-20 15:22 43.32393 1.53812 35768 ft 422 kts 330°
2026-04-20 15:22 43.35057 1.52119 36006 ft 422 kts 330°
2026-04-20 15:23 43.37720 1.50424 36223 ft 422 kts 330°
2026-04-20 15:23 43.40388 1.48726 36415 ft 423 kts 330°
2026-04-20 15:23 43.43060 1.47021 36630 ft 423 kts 330°
2026-04-20 15:23 43.45723 1.45321 36937 ft 420 kts 330°
2026-04-20 15:24 43.48353 1.43643 37401 ft 413 kts 330°
2026-04-20 15:24 43.50949 1.41984 37750 ft 409 kts 330°
2026-04-20 15:24 43.53533 1.40328 37861 ft 411 kts 330°
2026-04-20 15:25 43.58756 1.36976 37935 ft 417 kts 330°
2026-04-20 15:25 43.64006 1.33603 37938 ft 415 kts 329°
2026-04-20 15:26 43.68571 1.29093 37941 ft 402 kts 311°
2026-04-20 15:26 43.71961 1.23057 37937 ft 396 kts 300°
2026-04-20 15:27 43.74946 1.16665 37935 ft 396 kts 300°
2026-04-20 15:27 43.77945 1.10275 37937 ft 396 kts 301°
2026-04-20 15:28 43.80969 1.03882 37939 ft 397 kts 301°
2026-04-20 15:28 43.84002 0.97474 37939 ft 398 kts 301°
2026-04-20 15:29 43.87093 0.91092 37924 ft 401 kts 307°
2026-04-20 15:29 43.91260 0.85872 37926 ft 409 kts 322°
2026-04-20 15:30 43.96370 0.82243 37930 ft 415 kts 331°
2026-04-20 15:30 44.01648 0.78932 37920 ft 416 kts 331°
2026-04-20 15:31 44.06911 0.75591 37916 ft 416 kts 330°
2026-04-20 15:31 44.12164 0.72206 37913 ft 416 kts 330°
2026-04-20 15:32 44.17398 0.68809 37916 ft 415 kts 330°
2026-04-20 15:32 44.22614 0.65414 37916 ft 414 kts 330°
2026-04-20 15:33 44.27824 0.62019 37911 ft 413 kts 330°
2026-04-20 15:33 44.33021 0.58628 37914 ft 412 kts 330°
2026-04-20 15:34 44.38202 0.55239 37918 ft 411 kts 330°
2026-04-20 15:34 44.43387 0.51842 37914 ft 410 kts 330°
2026-04-20 15:35 44.48546 0.48439 37927 ft 409 kts 330°
2026-04-20 15:35 44.53689 0.45026 37922 ft 409 kts 330°
2026-04-20 15:36 44.58826 0.41609 37930 ft 409 kts 330°
2026-04-20 15:36 44.63927 0.38211 37940 ft 409 kts 330°
2026-04-20 15:37 44.69072 0.34777 37937 ft 410 kts 330°
2026-04-20 15:37 44.74223 0.31334 37935 ft 410 kts 330°
2026-04-20 15:38 44.79371 0.27886 37938 ft 410 kts 330°
2026-04-20 15:38 44.84530 0.24426 37938 ft 410 kts 330°
2026-04-20 15:39 44.89688 0.20957 37948 ft 411 kts 329°
2026-04-20 15:39 44.94849 0.17477 37946 ft 411 kts 329°
2026-04-20 15:40 44.99136 0.14581 37942 ft 411 kts 330°
2026-04-20 15:40 45.04297 0.11091 37949 ft 411 kts 329°
2026-04-20 15:41 45.09462 0.07592 37943 ft 411 kts 329°
2026-04-20 15:41 45.14619 0.04091 37948 ft 411 kts 329°
2026-04-20 15:42 45.19766 0.00589 37949 ft 410 kts 329°
2026-04-20 15:42 45.24908 -0.02917 37941 ft 410 kts 330°
2026-04-20 15:43 45.30045 -0.06427 37964 ft 410 kts 329°
2026-04-20 15:43 45.35181 -0.09943 37959 ft 410 kts 330°
2026-04-20 15:44 45.40316 -0.13465 37957 ft 410 kts 329°
2026-04-20 15:44 45.45454 -0.16997 37961 ft 410 kts 329°
2026-04-20 15:45 45.50593 -0.20537 37963 ft 411 kts 329°
2026-04-20 15:45 45.55743 -0.24092 37968 ft 411 kts 329°
2026-04-20 15:46 45.60896 -0.27656 37967 ft 412 kts 329°
2026-04-20 15:46 45.66013 -0.31320 37951 ft 410 kts 324°
2026-04-20 15:47 45.70533 -0.36166 37967 ft 406 kts 317°
2026-04-20 15:47 45.74949 -0.41227 37968 ft 406 kts 317°
2026-04-20 15:48 45.79373 -0.46270 37962 ft 406 kts 318°
2026-04-20 15:48 45.83805 -0.51297 37979 ft 406 kts 318°
2026-04-20 15:49 45.88240 -0.56326 37974 ft 406 kts 318°
2026-04-20 15:49 45.92666 -0.61354 37977 ft 406 kts 318°
2026-04-20 15:50 45.97061 -0.66358 37981 ft 405 kts 318°
2026-04-20 15:50 46.01476 -0.71396 37986 ft 405 kts 318°
2026-04-20 15:51 46.05880 -0.76433 37987 ft 404 kts 318°
2026-04-20 15:51 46.10271 -0.81465 37984 ft 403 kts 318°
2026-04-20 15:52 46.14650 -0.86495 37991 ft 402 kts 318°
2026-04-20 15:52 46.19024 -0.91529 37990 ft 402 kts 317°
2026-04-20 15:53 46.25569 -0.99079 38001 ft 401 kts 317°
2026-04-20 15:53 46.29921 -1.04113 37999 ft 401 kts 317°
2026-04-20 15:54 46.34272 -1.09159 37999 ft 401 kts 317°
2026-04-20 15:54 46.38618 -1.14209 37999 ft 401 kts 317°
2026-04-20 15:55 46.42962 -1.19267 38003 ft 400 kts 317°
2026-04-20 15:55 46.47299 -1.24329 38010 ft 400 kts 317°
2026-04-20 15:56 46.51641 -1.29407 38013 ft 401 kts 317°
2026-04-20 15:56 46.55980 -1.34490 38026 ft 401 kts 317°
2026-04-20 15:57 46.60300 -1.39630 38011 ft 400 kts 314°
2026-04-20 15:57 46.64188 -1.45393 38018 ft 399 kts 310°
2026-04-20 15:58 46.67996 -1.51272 38021 ft 400 kts 310°
2026-04-20 15:58 46.71831 -1.57150 38020 ft 400 kts 310°
2026-04-20 15:59 46.75681 -1.63018 38031 ft 401 kts 311°
2026-04-20 15:59 46.79538 -1.68899 38023 ft 401 kts 311°
2026-04-20 16:00 46.83393 -1.74788 38032 ft 401 kts 311°
2026-04-20 16:00 46.87245 -1.80685 38039 ft 401 kts 311°
2026-04-20 16:01 46.91093 -1.86589 38036 ft 401 kts 311°
2026-04-20 16:01 46.94938 -1.92506 38037 ft 401 kts 311°
2026-04-20 16:02 46.98772 -1.98415 38043 ft 400 kts 310°
2026-04-20 16:02 47.02622 -2.04304 38043 ft 400 kts 311°
2026-04-20 16:03 47.06539 -2.10100 38049 ft 400 kts 312°
2026-04-20 16:03 47.10458 -2.15889 38046 ft 400 kts 312°
2026-04-20 16:04 47.14367 -2.21697 38049 ft 400 kts 311°
2026-04-20 16:04 47.18247 -2.27487 38042 ft 400 kts 311°
2026-04-20 16:05 47.22170 -2.33357 38048 ft 400 kts 311°
2026-04-20 16:05 47.26041 -2.39164 38046 ft 400 kts 311°
2026-04-20 16:06 47.29936 -2.45019 38056 ft 400 kts 311°
2026-04-20 16:06 47.33830 -2.50887 38058 ft 401 kts 311°
2026-04-20 16:07 47.37727 -2.56771 38058 ft 402 kts 311°
2026-04-20 16:07 47.41627 -2.62673 38061 ft 401 kts 311°
2026-04-20 16:08 47.45517 -2.68572 38066 ft 401 kts 311°
2026-04-20 16:08 47.49411 -2.74493 38067 ft 401 kts 311°
2026-04-20 16:09 47.53296 -2.80413 38077 ft 401 kts 311°
2026-04-20 16:09 47.57181 -2.86344 38073 ft 401 kts 311°
2026-04-20 16:10 47.61474 -2.91675 38088 ft 404 kts 320°
2026-04-20 16:10 47.66023 -2.96590 38074 ft 405 kts 320°
2026-04-20 16:11 47.70576 -3.01533 38072 ft 405 kts 320°
2026-04-20 16:11 47.75116 -3.06498 38071 ft 406 kts 320°
2026-04-20 16:12 47.79655 -3.11489 38090 ft 406 kts 320°
2026-04-20 16:12 47.84191 -3.16492 38085 ft 406 kts 320°
2026-04-20 16:13 47.88720 -3.21504 38082 ft 406 kts 320°
2026-04-20 16:13 47.93227 -3.26503 38075 ft 406 kts 320°
2026-04-20 16:14 47.97760 -3.31539 38083 ft 406 kts 320°
2026-04-20 16:14 48.02292 -3.36586 38086 ft 407 kts 320°
2026-04-20 16:15 48.06832 -3.41652 38081 ft 407 kts 320°
2026-04-20 16:15 48.11367 -3.46724 38090 ft 407 kts 320°
2026-04-20 16:16 48.15897 -3.51803 38104 ft 407 kts 320°
2026-04-20 16:16 48.20430 -3.56897 38104 ft 407 kts 320°
2026-04-20 16:17 48.24960 -3.61997 38106 ft 407 kts 320°
2026-04-20 16:17 48.29485 -3.67106 38114 ft 407 kts 320°
2026-04-20 16:18 48.34013 -3.72231 38122 ft 407 kts 320°
2026-04-20 16:18 48.38539 -3.77362 38117 ft 407 kts 320°
2026-04-20 16:19 48.43061 -3.82499 38124 ft 408 kts 320°
2026-04-20 16:19 48.47587 -3.87655 38128 ft 408 kts 320°
2026-04-20 16:20 48.52120 -3.92832 38118 ft 409 kts 320°
2026-04-20 16:20 48.56654 -3.98022 38121 ft 409 kts 320°
2026-04-20 16:21 48.61187 -4.03220 38114 ft 409 kts 320°
2026-04-20 16:21 48.65714 -4.08425 38119 ft 409 kts 320°
2026-04-20 16:22 48.70237 -4.13637 38121 ft 408 kts 320°
2026-04-20 16:22 48.74753 -4.18852 38118 ft 408 kts 319°
2026-04-20 16:23 48.79263 -4.24073 38110 ft 408 kts 319°
2026-04-20 16:23 48.83768 -4.29301 38111 ft 408 kts 319°
2026-04-20 16:24 48.87508 -4.33652 38107 ft 407 kts 319°
2026-04-20 16:24 48.92007 -4.38893 38110 ft 407 kts 319°
2026-04-20 16:25 48.96503 -4.44145 38111 ft 407 kts 319°
2026-04-20 16:25 49.00991 -4.49400 38119 ft 407 kts 319°
2026-04-20 16:26 49.05604 -4.54459 35732 ft 434 kts 331°